Stansted, United Kingdom

10:18 PM BST on April 30, 2017 (GMT +0100)
Stansted

Weather History for EGSS - December, 2013

Change the Weather History Date:

Friday, December 27, 2013

  Actual Average Record
Temperature  
Mean Temperature 46 °F -  
Max Temperature 50 °F 42 °F 57 °F (2015)
Min Temperature 41 °F 32 °F 26 °F (1996)
Degree Days  
Heating Degree Days 20    
Moisture  
Dew Point 40 °F    
Average Humidity 78    
Maximum Humidity 94    
Minimum Humidity 71    
Precipitation  
Precipitation 0.00 in - - ()
Sea Level Pressure  
Sea Level Pressure 29.11 in    
Wind  
Wind Speed 22 mph ()    
Max Wind Speed 30 mph    
Max Gust Speed 41 mph    
Visibility 5.7 miles    
Events Rain    
Averages and records for this station are not official NWS values.
T = Trace of Precipitation, MM = Missing Value Source: Averaged Metar Reports

Daily Weather History Graph

Daily Weather History Graph

Search for Another Location

Airport or City:

Trip Planner

Search our weather history database for the weather conditions in past years. The results will help you decide how hot, cold, wet, or windy it might be!

Date:

Astronomy

Dec. 27, 2013 Rise Set
Actual Time 8:06 AM GMT 3:54 PM GMT
Civil Twilight 7:25 AM GMT 4:34 PM GMT
Nautical Twilight 6:42 AM GMT 5:18 PM GMT
Astronomical Twilight 6:01 AM GMT 5:59 PM GMT
Moon 1:54 AM GMT (12/27) 12:20 PM GMT (12/27)
Length of Visible Light 9h 09m
Length of Day
7h 47m
Waning Crescent, 30% of the Moon is Illuminated
Dec 27
Waning Crescent
Jan 1
New
Jan 8
First Quarter
Jan 16
Full
Jan 24
Last Quarter

Hourly Weather History & Observations

Time (GMT) Temp. Windchill Dew Point Humidity Pressure Visibility Wind Dir Wind Speed Gust Speed Precip Events Conditions
12:20 AM 44.6 °F 35.9 °F 39.2 °F 81% 29.24 in 6.2 mi South 23.0 mph - N/A Rain Rain
12:50 AM 44.6 °F 34.7 °F 37.4 °F 76% 29.21 in 6.2 mi South 29.9 mph 41.4 mph N/A   Mostly Cloudy
1:20 AM 44.6 °F 35.1 °F 39.2 °F 81% 29.15 in 6.2 mi South 27.6 mph - N/A   Overcast
1:50 AM 44.6 °F 34.7 °F 39.2 °F 81% 29.12 in 6.2 mi South 29.9 mph - N/A   Overcast
2:20 AM 44.6 °F 34.9 °F 41.0 °F 87% 29.09 in 6.2 mi South 28.8 mph 41.4 mph N/A   Overcast
2:50 AM 46.4 °F 37.2 °F 42.8 °F 87% 29.06 in 3.7 mi South 29.9 mph - N/A Rain Light Rain
3:20 AM 46.4 °F 37.5 °F 44.6 °F 93% 29.06 in 3.1 mi South 27.6 mph - N/A Rain Light Rain
3:50 AM 46.4 °F 37.5 °F 44.6 °F 93% 29.00 in 3.7 mi South 27.6 mph 39.1 mph N/A Rain Light Rain
4:20 AM 48.2 °F - 46.4 °F 93% 29.00 in 6.2 mi South 27.6 mph 40.3 mph N/A Rain Light Rain
4:50 AM 50.0 °F - 46.4 °F 87% 28.97 in - South 26.5 mph - N/A Rain Rain
5:20 AM 50.0 °F - 48.2 °F 94% 29.00 in 6.2 mi SW 19.6 mph - N/A Rain Light Rain
5:50 AM 50.0 °F - 46.4 °F 87% 29.00 in 6.2 mi SSW 24.2 mph - N/A Rain Light Rain
6:20 AM 50.0 °F - 44.6 °F 82% 29.00 in 5.6 mi SSW 24.2 mph 36.8 mph N/A   Unknown
6:50 AM 50.0 °F - 44.6 °F 82% 29.00 in 5.6 mi SSW 23.0 mph - N/A   Mostly Cloudy
7:20 AM 48.2 °F - 42.8 °F 82% 29.00 in 5.0 mi SW 26.5 mph - N/A   Overcast
7:50 AM 48.2 °F - 42.8 °F 82% 29.00 in 5.0 mi SW 24.2 mph - N/A   Mostly Cloudy
8:20 AM 48.2 °F - 41.0 °F 76% 29.00 in 5.0 mi SW 23.0 mph - N/A   Mostly Cloudy
8:50 AM 48.2 °F - 41.0 °F 76% 29.00 in 5.6 mi SW 25.3 mph - N/A   Partly Cloudy
9:20 AM 48.2 °F - 41.0 °F 76% 29.03 in 5.6 mi SW 25.3 mph - N/A   Scattered Clouds
9:50 AM 48.2 °F - 39.2 °F 71% 29.03 in 6.2 mi SW 24.2 mph - N/A   Scattered Clouds
10:20 AM 48.2 °F - 39.2 °F 71% 29.06 in 6.2 mi SW 25.3 mph - N/A   Mostly Cloudy
10:50 AM 48.2 °F - 39.2 °F 71% 29.06 in 6.2 mi SW 26.5 mph 38.0 mph N/A   Mostly Cloudy
11:20 AM 48.2 °F - 39.2 °F 71% 29.06 in 6.2 mi SW 26.5 mph 38.0 mph N/A   Scattered Clouds
11:50 AM 48.2 °F - 39.2 °F 71% 29.06 in 5.6 mi SW 25.3 mph 38.0 mph N/A   Scattered Clouds
12:20 PM 48.2 °F - 39.2 °F 71% 29.06 in 6.2 mi SW 26.5 mph 39.1 mph N/A   Mostly Cloudy
12:50 PM 48.2 °F - 39.2 °F 71% 29.09 in 6.2 mi SW 25.3 mph - N/A   Mostly Cloudy
1:20 PM 48.2 °F - 39.2 °F 71% 29.09 in 6.2 mi SW 21.9 mph - N/A   Mostly Cloudy
1:50 PM 48.2 °F - 39.2 °F 71% 29.09 in 6.2 mi SW 25.3 mph - N/A   Scattered Clouds
2:20 PM 48.2 °F - 39.2 °F 71% 29.09 in 6.2 mi SW 24.2 mph - N/A   Scattered Clouds
2:50 PM 48.2 °F - 39.2 °F 71% 29.12 in 6.2 mi SW 18.4 mph - N/A   Mostly Cloudy
3:20 PM 48.2 °F - 39.2 °F 71% 29.12 in 6.2 mi SSW 16.1 mph - N/A   Scattered Clouds
3:50 PM 46.4 °F 39.5 °F 39.2 °F 76% 29.12 in 6.2 mi SSW 17.3 mph - N/A   Scattered Clouds
4:20 PM 46.4 °F 38.5 °F 37.4 °F 71% 29.15 in - SW 21.9 mph - N/A   Clear
4:50 PM 44.6 °F 37.8 °F 35.6 °F 71% 29.15 in - SW 15.0 mph - N/A   Clear
5:20 PM 44.6 °F 36.9 °F 37.4 °F 76% 29.15 in - SSW 18.4 mph - N/A   Clear
5:50 PM 44.6 °F 37.4 °F 35.6 °F 71% 29.15 in - SSW 16.1 mph - N/A   Clear
6:20 PM 44.6 °F 37.2 °F 37.4 °F 76% 29.18 in - SSW 17.3 mph - N/A   Clear
6:50 PM 44.6 °F 37.2 °F 35.6 °F 71% 29.18 in - SSW 17.3 mph - N/A   Clear
7:20 PM 44.6 °F 37.4 °F 35.6 °F 71% 29.21 in - SW 16.1 mph - N/A   Clear
7:50 PM 44.6 °F 36.9 °F 35.6 °F 71% 29.21 in - SSW 18.4 mph - N/A   Clear
8:20 PM 44.6 °F 36.6 °F 37.4 °F 76% 29.21 in - SW 19.6 mph - N/A   Clear
8:50 PM 42.8 °F 35.1 °F 37.4 °F 81% 29.21 in - SW 16.1 mph - N/A   Clear
9:20 PM 42.8 °F 35.4 °F 37.4 °F 81% 29.21 in - SW 15.0 mph - N/A   Clear
9:50 PM 42.8 °F 36.2 °F 35.6 °F 76% 29.21 in - SW 12.7 mph - N/A   Clear
10:20 PM 41.0 °F 33.5 °F 35.6 °F 81% 29.24 in - SW 13.8 mph - N/A   Clear
10:50 PM 41.0 °F 34.3 °F 35.6 °F 81% 29.24 in - SW 11.5 mph - N/A   Clear
11:20 PM 41.0 °F 33.9 °F 35.6 °F 81% 29.24 in - SW 12.7 mph - N/A   Clear
11:50 PM 41.0 °F 34.3 °F 33.8 °F 76% 29.24 in - SW 11.5 mph - N/A   Clear